Weather in Kebraty

Russia / Perm Krai     60°22′09″N   54°12′48″E
temp.,
°C
wind,
m/s
gust,
m/s
humid.,
%
clouds,
%
prec.,
mm/h
press.,
hPa
HPBL,
m
26 january, tue
tue2623:00+2sw41199100 1.3 1018357
02:00+1sw41098100 0.3 1019356
05:00+1sw51296100 0.6 1019522
08:00+1sw51194100 0.0 1020518
11:00−1sw41192100 0.1 1021490
14:00−1sw41091100 0.0 1021568
17:00−3sw4892100 0.1 1021430
20:00−6sw389599 0.0 1022300
27 january, wed
wed2723:00−5sw379399 0.1 1022492
02:00−6s2696100 0.1 1022191
05:00−4ssw389599 0.2 1021429
08:00−4s3995100 0.1 1020295
11:00−3ssw4992100 0.1 1019520
14:00−3s4992100 0.1 1018518
17:00−2s51091100 0.1 1016789
20:00−2s51290100 0.1 1014898
28 january, thu
thu2823:00−2ssw51293100 1.4 1012770
02:00−1s51391100 0.1 1010883
05:000sw61397100 1.1 1008914
08:00−3wsw4138985 0.8 1009758
11:00−3wsw5118893 0.8 1012796
14:00−2wsw498899 0.1 1014752
17:00−2wsw379099 0.1 1016474
20:00−3sw2595100 0.0 1018222
29 january, fri
fri2923:00−4sw139799 0.1 1018114
02:00−5s2295100 0.0 101980
05:00−7se2296100 0.0 101961
08:00−5ese2696100 0.0 1018199
11:00−4ese3895100 0.3 1018376
14:00−4se3792100 0.3 1017457
17:00−6se4892100 0.3 1016466
20:00−7ese41194100 0.0 1015486
30 january, sat
sat3023:00−9ese51192100 0.1 1014466
02:00−12ese51191100 0.0 1013500
05:00−14ese51289100 0.0 1011559
08:00−14ese51190100 0.1 1010563
11:00−15ese51194100 1.1 1009539
14:00−16ese5992100 0.5 1009505
17:00−16ese4894100 0.9 1009480
20:00−17ese3794100 0.3 1010402